Flag for Slovakia Weather past 2 weeks in Prievidza, Slovakia

Now
49 °F

Overcast.


Feels Like: 47 °F
Forecast: 33 / 54 °F
Wind: 5 mph from Northeast

Location: Prievidza

Current Time: Oct 23, 2014 at 4:40:53 PM

Latest Report: Oct 23, 2014 at 4:00 PM


Visibility: 31 mi

Pressure: 29.86 "Hg

Humidity: 80%

Dew point: 43 °F

Location of PrievidzaLocation

Historic Weather in Prievidza — Graph

°F

Prievidza temperature yesterday

Maximum temperature yesterday: 53 °F (at 3:00 AM)
Minimum temperature yesterday: 43 °F (at 11:00 PM)
Average temperature yesterday: 47 °F

Past Weeks' High & Low Weather Summary

 TemperatureHumidityPressure
High78 °F (Oct 12, 2:00 PM)97% (Oct 17, 5:00 AM)30.39 "Hg (Oct 17, 5:00 AM)
Low40 °F (Oct 23, 7:00 AM)46% (Oct 18, 3:00 PM)29.58 "Hg (Oct 22, 3:00 AM)
Average58 °F83%29.95 "Hg
* Reported Oct 8 3:00 PM — Oct 23 3:00 PM, Prievidza, Weather by CustomWeather, © 2014

Note: Actual official high and low records may vary slightly from our data, if they occured in-between our weather recording intervals... More about our weather records

Advertising

Prievidza weather history for previous 24 hours

 ConditionsComfort  
Time TempWeatherWind HumidityBarometerVisibility
3:00 PM
Oct 23
50 °FOvercast.3 mph80%29.83 "Hg31 mi
2:00 PM50 °FLight rain. Overcast.3 mph84%29.81 "Hg28 mi
1:00 PM50 °FLight rain. Overcast.3 mph84%29.82 "Hg11 mi
12:00 PM49 °FLight rain. Overcast.N/A84%29.82 "Hg15 mi
11:00 AM47 °FOvercast.N/A89%29.80 "Hg25 mi
10:00 AM44 °FLight rain. Overcast.2 mph94%29.80 "Hg19 mi
9:00 AM42 °FOvercast.No wind95%29.78 "Hg19 mi
8:00 AM40 °FPartly sunny.N/A95%29.77 "Hg19 mi
7:00 AM40 °FQuite cool.No wind94%29.73 "Hg7 mi
6:00 AM42 °FQuite cool.N/A93%29.71 "Hg28 mi
5:00 AM42 °FQuite cool.N/A93%29.71 "Hg22 mi
4:00 AM42 °FQuite cool.1 mph93%29.72 "Hg31 mi
3:00 AM42 °FQuite cool.N/A92%29.71 "Hg31 mi
2:00 AM42 °FLight rain. Overcast.N/A92%29.70 "Hg17 mi
1:00 AM42 °FDrizzle. Overcast.1 mph92%29.71 "Hg28 mi
12:00 AM42 °FLight rain. Overcast.No wind89%29.70 "Hg31 mi
11:00 PM
Oct 22
43 °FLight rain. Overcast.N/A92%29.70 "Hg11 mi
10:00 PM43 °FLight rain. Overcast.N/A89%29.71 "Hg10 mi
9:00 PM43 °FLight rain. Overcast.N/A89%29.70 "Hg16 mi
8:00 PM44 °FQuite cool.N/A88%29.70 "HgN/A
7:00 PM44 °FLight rain. Overcast.N/A89%29.69 "Hg19 mi
6:00 PM44 °FLight rain. Overcast.N/A89%29.68 "Hg12 mi
5:00 PM45 °FLight rain. Overcast.N/A86%29.68 "Hg16 mi
4:00 PM45 °FLight rain. Low clouds.3 mph86%29.66 "Hg22 mi
Weather by CustomWeather, © 2014

See weather overviewHow to use our weather pages